Location: Village de las Huertas
(35.3014°N, 106.4095°W)
Time: 08:57:16
(UTC+00:00)

ALOS - Pass Details

Date: 29 October 2020
Orbit: 684 x 684 km, 97.9° (Epoch: 04 December)

Event Time Altitude Azimuth Distance (km) Brightness Sun altitude
Rises 12:20:38 0° 0° (N) 3,053 5.5 -13.6°
Reaches altitude 10° 12:23:04 10° 350° (N) 2,134 4.6 -13.2°
Maximum altitude 12:27:10 31° 289° (WNW) 1,185 3.0 -12.3°
Drops below altitude 10° 12:31:15 10° 227° (SW) 2,122 4.4 -11.5°
Sets 12:33:40 0° 217° (SW) 3,033 5.3 -11.0°
